sat.trackr.live / text

‹ back to catalog

SPACEMOBILE-008

NORAD 69589 · 2026-139A

PAYLOAD ACTIVE UNKNOWN

§ Identity

Operator
Country
US
Launch date
2026-06-17
Launch site
AFETR
Launch vehicle
Mass (kg)
RCS (m²)

External: N2YO · Heavens-Above · Gunter

§ Orbital elements

Epoch: 2026-09-19T22:34:50.984832Z

Period
95.18 min
Inclination
52.9951°
Eccentricity
0.0002409
Mean motion
15.12989045 rev/d
Perigee alt
525.4 km
Apogee alt
528.8 km
Semi-major
6,905.2 km
B*
8.8796e-5
RAAN
192.3288°
Arg perigee
247.0746°
Mean anomaly
112.9991°
Rev number
1,432

§ Raw data

SPACEMOBILE-0081 69589U 26139A   26262.94086788  .00001285  00000+0  88796-4 0  99932 69589  52.9951 192.3288 0002409 247.0746 112.9991 15.12989045 14324

JSON: /api/v1/satellites/69589 · /tle

For live sub-satellite position, see the globe view (requires WebGL).

§ Visibility from observer

Set your observer location to see the next 7 days of passes ≥ 10°. The values pass through the URL so the page stays shareable.

No JS? Fill the form by hand. The geolocation button needs JavaScript.

§ Radio — SatNOGS DB

ModeDescriptionDownlinkUplink
FSK Mode U - FSK 2400 439.500 MHz
FM Mode U - Unconfirmed Transmitter 430.500 MHz
FM Mode U - Unconfirmed Transmitter 432.300 MHz
FM Mode U - Unconfirmed Transmitter 434.100 MHz
FM Mode U - Unconfirmed Transmitter 435.900 MHz

5 transmitters · refreshed weekly from db.satnogs.org